Fairbanks, AK

12:01 AM AKDT on June 20, 2019 (GMT -0800)
Fairbanks International

Weather History for PAFA - January, 1975

Change the Weather History Date:

Friday, January 17, 1975

  Actual Average Record
Temperature  
Mean Temperature 8 °F -9 °F  
Max Temperature 14 °F 0 °F 48 °F (2009)
Min Temperature 3 °F -16 °F -57 °F (1947)
Degree Days  
Heating Degree Days 56 74  
Month to date heating degree days 1242  
Since 1 July heating degree days 7514  
Cooling Degree Days 0 0  
Month to date cooling degree days 0  
Year to date cooling degree days 0  
Moisture  
Dew Point -1 °F    
Average Humidity 65    
Maximum Humidity 76    
Minimum Humidity 48    
Precipitation  
Precipitation 0.00 in 0.02 in 0.55 in (2018)
Month to date precipitation 0.34  
Year to date precipitation 0.34  
Snow  
Snow 0.00 in 0.40 in 6.10 in (2018)
Month to date snowfall 6.1  
Since 1 July snowfall 44.0  
Snow Depth -    
Sea Level Pressure  
Sea Level Pressure 29.39 in    
Wind  
Wind Speed 5 mph (NE)    
Max Wind Speed 8 mph    
Max Gust Speed -    
Visibility 15 miles    
Events Snow    
T = Trace of Precipitation, MM = Missing Value Source: NWS Daily Summary

Daily Weather History Graph

Daily Weather History Graph

Search for Another Location

Airport or City:

Astronomy

Jan. 17, 1975 Rise Set
Actual Time 9:22 AM AHST 2:41 PM AHST
Civil Twilight 8:13 AM AHST 3:50 PM AHST
Nautical Twilight 7:07 AM AHST 4:56 PM AHST
Astronomical Twilight 6:08 AM AHST 5:55 PM AHST
Moon 9:18 AM AHST (1/17) 10:48 PM AHST (1/17)
Length of Visible Light 7h 37m
Length of Day
5h 18m
Waxing Crescent, 25% of the Moon is Illuminated
Jan 17
Waxing Crescent
Jan 20
First Quarter
Jan 27
Full
Feb 2
Last Quarter
Feb 10
New

Hourly Weather History & Observations

Time (AHST) Temp. Windchill Dew Point Humidity Pressure Visibility Wind Dir Wind Speed Gust Speed Precip Events Conditions
12:00 AM 9.0 °F -2.2 °F -2.0 °F 61% 29.30 in 15.0 mi North 6.9 mph - N/A   Overcast
1:00 AM 7.0 °F -4.5 °F -2.0 °F 67% 29.29 in 15.0 mi NNE 6.9 mph - N/A   Unknown
2:00 AM 8.1 °F -2.0 °F -0.9 °F 67% 29.29 in 15.0 mi NNE 5.8 mph - N/A   Overcast
3:00 AM 8.1 °F -2.0 °F -4.0 °F 58% 29.29 in 15.0 mi NE 5.8 mph - N/A   Overcast
4:00 AM 9.0 °F -0.9 °F -0.9 °F 64% 29.29 in 15.0 mi NNE 5.8 mph - N/A   Overcast
5:00 AM 9.0 °F -0.9 °F -2.0 °F 61% 29.29 in 15.0 mi ENE 5.8 mph - N/A   Overcast
6:00 AM 10.0 °F -1.9 °F -2.0 °F 58% 29.30 in 15.0 mi NNE 8.1 mph - N/A   Overcast
7:00 AM 7.0 °F -3.3 °F -0.9 °F 70% 29.31 in 15.0 mi ENE 5.8 mph - N/A   Overcast
8:00 AM 5.0 °F -4.1 °F -8.0 °F 55% 29.33 in 15.0 mi East 4.6 mph - N/A   Unknown
9:00 AM 7.0 °F -3.3 °F -9.0 °F 48% 29.33 in 60.0 mi NE 5.8 mph - N/A   Mostly Cloudy
10:00 AM 6.1 °F -0.9 °F -2.9 °F 67% 29.35 in 80.0 mi NNE 3.5 mph - N/A   Mostly Cloudy
11:00 AM 6.1 °F -0.9 °F -5.1 °F 60% 29.37 in 80.0 mi NE 3.5 mph - N/A   Mostly Cloudy
12:00 PM 8.1 °F 1.4 °F -0.9 °F 67% 29.39 in 80.0 mi North 3.5 mph - N/A   Mostly Cloudy
1:00 PM 10.9 °F 4.7 °F 1.9 °F 67% 29.39 in 60.0 mi SE 3.5 mph - N/A Snow Light Snow
2:00 PM 14.0 °F 6.5 °F 5.0 °F 67% 29.41 in 60.0 mi NE 4.6 mph - N/A   Overcast
3:00 PM 12.9 °F 5.2 °F 5.0 °F 71% 29.41 in 60.0 mi NE 4.6 mph - N/A   Overcast
4:00 PM 12.0 °F 5.9 °F 3.9 °F 70% 29.42 in 40.0 mi North 3.5 mph - N/A   Overcast
5:00 PM 12.0 °F 5.9 °F 3.9 °F 70% 29.44 in 15.0 mi NNE 3.5 mph - N/A   Overcast
6:00 PM 9.0 °F - -0.0 °F 67% 29.45 in 15.0 mi Calm Calm - N/A   Overcast
7:00 PM 3.9 °F -3.4 °F -5.1 °F 66% 29.47 in 15.0 mi South 3.5 mph - N/A   Unknown
8:00 PM 5.0 °F - -0.9 °F 76% 29.49 in 15.0 mi Calm Calm - N/A   Overcast
9:00 PM 6.1 °F -0.9 °F -2.0 °F 69% 29.52 in 15.0 mi South 3.5 mph - N/A   Overcast
10:00 PM 7.0 °F -1.7 °F -0.9 °F 70% 29.55 in 15.0 mi South 4.6 mph - N/A   Unknown
11:00 PM 5.0 °F -6.9 °F -2.9 °F 70% 29.58 in 15.0 mi SSW 6.9 mph - N/A   Overcast